When you browse on this site, cookies collect data to enhance your experience and personalize the content and advertising you see.
Visit our Privacy Policy to learn more. By continuing to use the site, you agree to this use of cookies and data.
  • In Czech Republic
  • List of Countries
  • For 7 days
  • Water Temperature
  • Weather Map
  • Weather Widgets
  • user-avatar
    Login

    Hourly Weather Ostrava

    Today, 7 April, Tuesday

    Time Temperature Precipitation Wind Pressure Humidity
    00:00 +8°C° 0 mm 3 mps 754 mmHg 64%
    01:00 +7°C° 0 mm 3 mps 753 mmHg 64%
    02:00 +7°C° 0 mm 3 mps 754 mmHg 65%
    03:00 +7°C° 0 mm 3 mps 754 mmHg 66%
    04:00 +5°C° 0 mm 3 mps 754 mmHg 67%
    05:00 +7°C° 0 mm 3 mps 754 mmHg 64%
    06:00 +8°C° 0 mm 3 mps 754 mmHg 62%
    07:00 +9°C° 0 mm 3 mps 755 mmHg 59%
    08:00 +11°C° 0 mm 4 mps 755 mmHg 51%
    09:00 +13°C° 0 mm 5 mps 755 mmHg 43%
    10:00 +14°C° 0 mm 6 mps 755 mmHg 34%
    11:00 +15°C° 0 mm 5 mps 755 mmHg 33%
    12:00 +16°C° 0 mm 5 mps 754 mmHg 32%
    13:00 +17°C° 0 mm 5 mps 754 mmHg 30%
    14:00 +17°C° 0 mm 5 mps 754 mmHg 32%
    15:00 +17°C° 0 mm 4 mps 754 mmHg 33%
    16:00 +17°C° 0 mm 4 mps 754 mmHg 34%
    17:00 +14°C° 0 mm 4 mps 754 mmHg 39%
    18:00 +12°C° 0 mm 3 mps 754 mmHg 44%
    19:00 +10°C° 0 mm 2 mps 754 mmHg 49%
    20:00 +10°C° 0 mm 2 mps 754 mmHg 50%
    21:00 +9°C° 0 mm 2 mps 754 mmHg 51%
    22:00 +8°C° 0 mm 2 mps 754 mmHg 52%
    23:00 +8°C° 0 mm 2 mps 754 mmHg 53%

    Tomorrow, 8 April, Wednesday

    Time Temperature Precipitation Wind Pressure Humidity
    00:00 +8°C° 0 mm 2 mps 754 mmHg 54%
    01:00 +7°C° 0 mm 2 mps 754 mmHg 55%
    02:00 +7°C° 0 mm 2 mps 754 mmHg 55%
    03:00 +7°C° 0 mm 2 mps 754 mmHg 56%
    04:00 +7°C° 0 mm 1 mps 754 mmHg 56%
    05:00 +8°C° 0 mm 1 mps 754 mmHg 55%
    06:00 +9°C° 0 mm 1 mps 754 mmHg 54%
    07:00 +10°C° 0 mm 1 mps 753 mmHg 53%
    08:00 +12°C° 0 mm 1 mps 753 mmHg 46%
    09:00 +14°C° 0 mm 1 mps 753 mmHg 39%
    10:00 +17°C° 0 mm 2 mps 753 mmHg 32%
    11:00 +18°C° 0 mm 2 mps 752 mmHg 30%
    12:00 +18°C° 0 mm 2 mps 752 mmHg 27%
    13:00 +19°C° 0 mm 2 mps 752 mmHg 25%
    14:00 +19°C° 0 mm 2 mps 751 mmHg 26%
    15:00 +19°C° 0 mm 2 mps 751 mmHg 28%
    16:00 +20°C° 0 mm 1 mps 750 mmHg 29%
    17:00 +18°C° 0 mm 1 mps 750 mmHg 35%
    18:00 +15°C° 0 mm 1 mps 749 mmHg 42%
    19:00 +13°C° 0 mm 1 mps 749 mmHg 48%
    20:00 +12°C° 0 mm 1 mps 749 mmHg 52%
    21:00 +10°C° 0 mm 2 mps 749 mmHg 55%
    22:00 +10°C° 0 mm 2 mps 749 mmHg 58%
    23:00 +9°C° 0 mm 2 mps 749 mmHg 59%

    Day after tomorrow, 9 April, Thursday

    Time Temperature Precipitation Wind Pressure Humidity
    00:00 +9°C° 0 mm 2 mps 749 mmHg 60%
    01:00 +8°C° 0 mm 2 mps 748 mmHg 61%
    02:00 +8°C° 0 mm 2 mps 748 mmHg 62%
    03:00 +8°C° 0 mm 2 mps 748 mmHg 62%
    04:00 +7°C° 0 mm 2 mps 748 mmHg 63%
    05:00 +8°C° 0 mm 2 mps 748 mmHg 62%
    06:00 +9°C° 0 mm 2 mps 747 mmHg 61%
    07:00 +10°C° 0 mm 2 mps 747 mmHg 60%
    08:00 +12°C° 0 mm 3 mps 747 mmHg 55%
    09:00 +14°C° 0 mm 4 mps 747 mmHg 50%
    10:00 +17°C° 0 mm 4 mps 747 mmHg 45%
    11:00 +18°C° 0 mm 4 mps 747 mmHg 43%
    12:00 +19°C° 0 mm 4 mps 746 mmHg 41%
    13:00 +20°C° 0 mm 4 mps 746 mmHg 40%
    14:00 +19°C° 0 mm 4 mps 746 mmHg 41%
    15:00 +19°C° 0 mm 4 mps 746 mmHg 43%
    16:00 +19°C° 0 mm 4 mps 746 mmHg 45%
    17:00 +17°C° 0 mm 3 mps 746 mmHg 54%
    18:00 +14°C° 0 mm 3 mps 746 mmHg 64%
    19:00 +13°C° 0 mm 2 mps 746 mmHg 74%
    20:00 +13°C° 0 mm 2 mps 746 mmHg 76%
    21:00 +13°C° 0 mm 1 mps 747 mmHg 78%
    22:00 +13°C° 0 mm 1 mps 747 mmHg 81%
    23:00 +12°C° 0.1 mm 2 mps 747 mmHg 83%

    10 April, Friday

    Time Temperature Precipitation Wind Pressure Humidity
    00:00 +12°C° 0.1 mm 2 mps 747 mmHg 85%
    01:00 +10°C° 0.1 mm 2 mps 748 mmHg 87%
    02:00 +9°C° 0 mm 2 mps 748 mmHg 89%
    03:00 +9°C° 0 mm 2 mps 748 mmHg 91%
    04:00 +8°C° 0 mm 2 mps 748 mmHg 93%
    05:00 +8°C° 0 mm 2 mps 748 mmHg 90%
    06:00 +9°C° 0 mm 2 mps 749 mmHg 88%
    07:00 +9°C° 0 mm 2 mps 749 mmHg 85%
    08:00 +10°C° 0 mm 2 mps 749 mmHg 76%
    09:00 +11°C° 0 mm 3 mps 749 mmHg 67%
    10:00 +11°C° 0 mm 3 mps 749 mmHg 58%
    11:00 +12°C° 0 mm 3 mps 749 mmHg 53%
    12:00 +13°C° 0 mm 3 mps 749 mmHg 48%
    13:00 +13°C° 0 mm 3 mps 749 mmHg 43%
    14:00 +13°C° 0 mm 3 mps 749 mmHg 42%
    15:00 +13°C° 0 mm 3 mps 748 mmHg 40%
    16:00 +13°C° 0 mm 3 mps 748 mmHg 39%
    17:00 +13°C° 0 mm 2 mps 748 mmHg 44%
    18:00 +10°C° 0 mm 2 mps 748 mmHg 49%
    19:00 +10°C° 0 mm 1 mps 748 mmHg 54%
    20:00 +9°C° 0 mm 1 mps 748 mmHg 55%
    21:00 +9°C° 0 mm 1 mps 748 mmHg 57%
    22:00 +7°C° 0 mm 0 mps 749 mmHg 59%
    23:00 +7°C° 0 mm 0 mps 748 mmHg 60%

    11 April, Saturday

    Time Temperature Precipitation Wind Pressure Humidity
    00:00 +6°C° 0 mm 0 mps 748 mmHg 62%
    01:00 +6°C° 0 mm 0 mps 748 mmHg 63%
    02:00 +5°C° 0 mm 0 mps 748 mmHg 65%
    03:00 +5°C° 0 mm 0 mps 748 mmHg 66%
    04:00 +5°C° 0 mm 0 mps 748 mmHg 67%
    05:00 +6°C° 0 mm 0 mps 748 mmHg 65%
    06:00 +7°C° 0 mm 0 mps 748 mmHg 62%
    07:00 +8°C° 0 mm 0 mps 748 mmHg 60%
    08:00 +10°C° 0 mm 1 mps 748 mmHg 55%
    09:00 +12°C° 0 mm 1 mps 748 mmHg 51%
    10:00 +14°C° 0 mm 1 mps 748 mmHg 46%
    11:00 +15°C° 0 mm 1 mps 748 mmHg 44%
    12:00 +16°C° 0 mm 1 mps 748 mmHg 42%
    13:00 +18°C° 0 mm 1 mps 747 mmHg 39%
    14:00 +18°C° 0 mm 1 mps 747 mmHg 40%
    15:00 +18°C° 0 mm 1 mps 747 mmHg 40%
    16:00 +18°C° 0 mm 1 mps 746 mmHg 40%
    17:00 +15°C° 0 mm 1 mps 746 mmHg 45%
    18:00 +13°C° 0 mm 1 mps 746 mmHg 50%
    19:00 +12°C° 0 mm 1 mps 746 mmHg 54%
    20:00 +11°C° 0 mm 1 mps 746 mmHg 57%
    21:00 +11°C° 0 mm 1 mps 746 mmHg 59%
    22:00 +10°C° 0 mm 1 mps 746 mmHg 62%
    23:00 +10°C° 0 mm 1 mps 746 mmHg 65%

    12 April, Sunday

    Time Temperature Precipitation Wind Pressure Humidity
    00:00 +9°C° 0 mm 2 mps 746 mmHg 68%
    01:00 +8°C° 0 mm 2 mps 745 mmHg 71%
    02:00 +8°C° 0 mm 2 mps 745 mmHg 72%
    03:00 +8°C° 0 mm 2 mps 745 mmHg 74%
    04:00 +8°C° 0 mm 2 mps 744 mmHg 76%
    05:00 +9°C° 0 mm 3 mps 744 mmHg 74%
    06:00 +10°C° 0 mm 3 mps 744 mmHg 72%
    07:00 +11°C° 0 mm 3 mps 744 mmHg 70%
    08:00 +13°C° 0 mm 3 mps 744 mmHg 65%
    09:00 +15°C° 0 mm 4 mps 744 mmHg 60%
    10:00 +18°C° 0 mm 4 mps 743 mmHg 56%
    11:00 +19°C° 0.1 mm 4 mps 743 mmHg 54%
    12:00 +20°C° 0.1 mm 4 mps 743 mmHg 52%
    13:00 +20°C° 0.1 mm 4 mps 742 mmHg 50%
    14:00 +20°C° 0.2 mm 4 mps 742 mmHg 51%
    15:00 +20°C° 0.2 mm 4 mps 742 mmHg 52%
    16:00 +20°C° 0.2 mm 4 mps 741 mmHg 53%
    17:00 +18°C° 0.1 mm 4 mps 741 mmHg 59%
    18:00 +17°C° 0.1 mm 3 mps 741 mmHg 65%
    19:00 +15°C° 0.1 mm 2 mps 741 mmHg 71%
    20:00 +15°C° 0.1 mm 2 mps 741 mmHg 73%
    21:00 +14°C° 0.1 mm 2 mps 741 mmHg 76%
    22:00 +12°C° 0.1 mm 3 mps 741 mmHg 78%
    23:00 +12°C° 0 mm 3 mps 741 mmHg 80%
    Show more